Weather History for York, NE

Change the Weather History Date:

Tuesday, November 27, 2012

  Actual Average Record
Temperature  
Mean Temperature 28 °F -  
Max Temperature 46 °F 39 °F 69 °F (1963)
Min Temperature 10 °F 21 °F -2 °F (1976)
Degree Days  
Heating Degree Days 37    
Moisture  
Dew Point 19 °F    
Average Humidity 76    
Maximum Humidity 92    
Minimum Humidity 46    
Precipitation  
Precipitation 0.00 in - - ()
Sea Level Pressure  
Sea Level Pressure 30.27 in    
Wind  
Wind Speed 9 mph (WSW)    
Max Wind Speed 25 mph    
Max Gust Speed 28 mph    
Visibility 10 miles    
Events      
Averages and records for this station are not official NWS values.
T = Trace of Precipitation, MM = Missing Value Source: NWS Daily Summary

Daily Weather History Graph

Daily Weather History Graph

Search for Another Location

Airport:

Trip Planner

Search our weather history database for the weather conditions in past years. The results will help you decide how hot, cold, wet, or windy it might be!

Date:

Astronomy

Nov. 27, 2012 Rise Set
Actual Time 7:32 AM CST 5:04 PM CST
Civil Twilight 7:01 AM CST 5:34 PM CST
Nautical Twilight 6:27 AM CST 6:08 PM CST
Astronomical Twilight 5:54 AM CST 6:41 PM CST
Moon 4:36 PM CST (11/27) 6:38 AM CST (11/27)
Length of Visible Light 10h 32m
Length of Day
9h 32m
Waxing Gibbous, 99% of the Moon is Illuminated
Nov 27
Waxing Gibbous
Nov 28
Full
Dec 6
Last Quarter
Dec 13
New
Dec 19
First Quarter

Hourly Weather History & Observations

Time (CST) Temp. Windchill Dew Point Humidity Pressure Visibility Wind Dir Wind Speed Gust Speed Precip Events Conditions
12:15 AM 12.2 °F 2.9 °F 8.6 °F 85% 30.42 in 10.0 mi West 5.8 mph - N/A   Clear
12:35 AM 12.2 °F 1.7 °F 8.6 °F 85% 30.42 in 10.0 mi WSW 6.9 mph - N/A   Clear
12:55 AM 12.2 °F - 8.6 °F 85% 30.41 in 10.0 mi Calm Calm - N/A   Clear
1:15 AM 10.4 °F - 8.6 °F 92% 30.41 in 10.0 mi Calm Calm - N/A   Clear
1:55 AM 12.2 °F 2.9 °F 8.6 °F 85% 30.39 in 10.0 mi SSW 5.8 mph - N/A   Clear
2:15 AM 14.0 °F 5.1 °F 10.4 °F 86% 30.38 in 10.0 mi SSW 5.8 mph - N/A   Clear
2:35 AM 12.2 °F 1.7 °F 8.6 °F 85% 30.38 in 10.0 mi SSW 6.9 mph - N/A   Clear
2:55 AM 12.2 °F 2.9 °F 8.6 °F 85% 30.39 in 10.0 mi SSW 5.8 mph - N/A   Clear
3:15 AM 12.2 °F 2.9 °F 8.6 °F 85% 30.38 in 10.0 mi SSW 5.8 mph - N/A   Clear
3:35 AM 12.2 °F 1.7 °F 8.6 °F 85% 30.37 in 10.0 mi SW 6.9 mph - N/A   Clear
3:55 AM 12.2 °F 1.7 °F 8.6 °F 85% 30.36 in 10.0 mi SSW 6.9 mph - N/A   Clear
4:15 AM 14.0 °F 6.5 °F 10.4 °F 86% 30.35 in 10.0 mi SSW 4.6 mph - N/A   Clear
4:35 AM 14.0 °F 5.1 °F 10.4 °F 86% 30.33 in 10.0 mi SSW 5.8 mph - N/A   Clear
4:55 AM 14.0 °F 2.9 °F 10.4 °F 86% 30.33 in 10.0 mi SW 8.1 mph - N/A   Clear
5:15 AM 14.0 °F 2.9 °F 10.4 °F 86% 30.32 in 10.0 mi SW 8.1 mph - N/A   Clear
5:35 AM 15.8 °F 4.2 °F 12.2 °F 86% 30.33 in 10.0 mi SW 9.2 mph - N/A   Clear
5:55 AM 15.8 °F 5.1 °F 12.2 °F 86% 30.32 in 10.0 mi SSW 8.1 mph - N/A   Clear
6:15 AM 14.0 °F 3.9 °F 10.4 °F 86% 30.32 in 10.0 mi SSW 6.9 mph - N/A   Clear
6:35 AM 14.0 °F 3.9 °F 10.4 °F 86% 30.31 in 10.0 mi South 6.9 mph - N/A   Clear
6:55 AM 14.0 °F 2.0 °F 10.4 °F 86% 30.31 in 10.0 mi SSW 9.2 mph - N/A   Clear
7:15 AM 15.8 °F 6.1 °F 12.2 °F 86% 30.31 in 10.0 mi SSW 6.9 mph - N/A   Clear
7:35 AM 15.8 °F 5.1 °F 12.2 °F 86% 30.31 in 10.0 mi SSW 8.1 mph - N/A   Clear
7:55 AM 17.6 °F 5.7 °F 14.0 °F 86% 30.29 in 10.0 mi South 10.4 mph - N/A   Clear
8:15 AM 17.6 °F 5.0 °F 14.0 °F 86% 30.29 in 10.0 mi SSW 11.5 mph - N/A   Clear
8:35 AM 19.4 °F 7.2 °F 15.8 °F 86% 30.28 in 10.0 mi SSW 11.5 mph - N/A   Clear
8:55 AM 21.2 °F 9.5 °F 17.6 °F 86% 30.29 in 10.0 mi SSW 11.5 mph - N/A   Clear
9:15 AM 23.0 °F 10.6 °F 19.4 °F 86% 30.29 in 10.0 mi SSW 13.8 mph - N/A   Clear
9:35 AM 24.8 °F 13.4 °F 19.4 °F 80% 30.28 in 10.0 mi SSW 12.7 mph - N/A   Clear
9:55 AM 26.6 °F 15.2 °F 23.0 °F 86% 30.28 in 10.0 mi SSW 13.8 mph - N/A   Clear
10:15 AM 30.2 °F 18.9 °F 24.8 °F 80% 30.27 in 10.0 mi SSW 16.1 mph 21.9 mph N/A   Clear
10:35 AM 32.0 °F 20.5 °F 24.8 °F 75% 30.26 in 10.0 mi SSW 18.4 mph - N/A   Clear
10:55 AM 32.0 °F 20.1 °F 24.8 °F 75% 30.25 in 10.0 mi SW 19.6 mph - N/A   Clear
11:15 AM 35.6 °F 24.8 °F 26.6 °F 70% 30.24 in 10.0 mi SSW 19.6 mph 24.2 mph N/A   Clear
11:35 AM 37.4 °F 26.6 °F 26.6 °F 65% 30.23 in 10.0 mi SSW 21.9 mph 25.3 mph N/A   Clear
11:55 AM 37.4 °F 25.9 °F 24.8 °F 60% 30.21 in 10.0 mi SW 25.3 mph - N/A   Clear
12:15 PM 37.4 °F 26.1 °F 24.8 °F 60% 30.19 in 10.0 mi SSW 24.2 mph 27.6 mph N/A   Clear
12:35 PM 41.0 °F 31.9 °F 24.8 °F 53% 30.18 in 10.0 mi SW 19.6 mph 27.6 mph N/A   Clear
12:55 PM 41.0 °F 32.2 °F 24.8 °F 53% 30.18 in 10.0 mi SW 18.4 mph 25.3 mph N/A   Clear
1:15 PM 41.0 °F 32.5 °F 24.8 °F 53% 30.17 in 10.0 mi SW 17.3 mph - N/A   Clear
1:35 PM 42.8 °F 34.3 °F 26.6 °F 53% 30.16 in 10.0 mi SW 19.6 mph 26.5 mph N/A   Clear
1:55 PM 44.6 °F 37.4 °F 26.6 °F 49% 30.16 in 10.0 mi SW 16.1 mph 21.9 mph N/A   Clear
2:15 PM 44.6 °F 36.6 °F 26.6 °F 49% 30.15 in 10.0 mi WSW 19.6 mph 27.6 mph N/A   Clear
2:35 PM 44.6 °F 37.8 °F 26.6 °F 49% 30.16 in 10.0 mi WSW 15.0 mph 21.9 mph N/A   Clear
2:55 PM 46.4 °F 39.5 °F 26.6 °F 46% 30.15 in 10.0 mi WSW 17.3 mph - N/A   Clear
3:15 PM 44.6 °F 37.8 °F 26.6 °F 49% 30.15 in 10.0 mi WSW 15.0 mph - N/A   Clear
3:35 PM 44.6 °F 37.8 °F 26.6 °F 49% 30.15 in 10.0 mi West 15.0 mph - N/A   Clear
3:55 PM 44.6 °F 38.1 °F 24.8 °F 46% 30.16 in 10.0 mi WSW 13.8 mph - N/A   Clear
4:15 PM 44.6 °F 38.8 °F 24.8 °F 46% 30.17 in 10.0 mi West 11.5 mph - N/A   Clear
4:35 PM 42.8 °F 38.0 °F 24.8 °F 49% 30.17 in 10.0 mi WSW 8.1 mph - N/A   Clear
5:15 PM 35.6 °F 29.9 °F 23.0 °F 60% 30.18 in 10.0 mi West 6.9 mph - N/A   Clear
5:35 PM 32.0 °F 26.4 °F 23.0 °F 69% 30.19 in 10.0 mi WNW 5.8 mph - N/A   Clear
5:55 PM 32.0 °F 26.4 °F 23.0 °F 69% 30.19 in 10.0 mi WNW 5.8 mph - N/A   Clear
6:15 PM 32.0 °F 25.6 °F 23.0 °F 69% 30.20 in 10.0 mi NW 6.9 mph - N/A   Clear
6:55 PM 30.2 °F 21.9 °F 24.8 °F 80% 30.21 in 10.0 mi NW 9.2 mph - N/A   Clear
7:15 PM 30.2 °F 22.6 °F 24.8 °F 80% 30.22 in 10.0 mi NW 8.1 mph - N/A   Clear
7:35 PM 28.4 °F 19.7 °F 23.0 °F 80% 30.22 in 10.0 mi NNW 9.2 mph - N/A   Clear
7:55 PM 26.6 °F 18.2 °F 23.0 °F 86% 30.23 in 10.0 mi NW 8.1 mph - N/A   Clear
8:15 PM 28.4 °F 21.2 °F 23.0 °F 80% 30.24 in 10.0 mi NW 6.9 mph - N/A   Clear
8:35 PM 24.8 °F 15.3 °F 21.2 °F 86% 30.25 in 10.0 mi NW 9.2 mph - N/A   Clear
8:55 PM 26.6 °F 17.5 °F 23.0 °F 86% 30.26 in 10.0 mi NW 9.2 mph - N/A   Clear
9:15 PM 26.6 °F 18.2 °F 23.0 °F 86% 30.26 in 10.0 mi NW 8.1 mph - N/A   Clear
9:35 PM 24.8 °F 16.1 °F 21.2 °F 86% 30.26 in 10.0 mi WNW 8.1 mph - N/A   Clear
9:55 PM 26.6 °F 17.5 °F 23.0 °F 86% 30.27 in 10.0 mi NW 9.2 mph - N/A   Clear
10:15 PM 24.8 °F 15.3 °F 21.2 °F 86% 30.27 in 10.0 mi NW 9.2 mph - N/A   Clear
10:35 PM 26.6 °F 16.8 °F 21.2 °F 80% 30.28 in 10.0 mi NW 10.4 mph - N/A   Clear
10:55 PM 24.8 °F 16.1 °F 19.4 °F 80% 30.29 in 10.0 mi WNW 8.1 mph - N/A   Clear
11:15 PM 24.8 °F 19.1 °F 21.2 °F 86% 30.28 in 10.0 mi WNW 4.6 mph - N/A   Clear
11:35 PM 24.8 °F 16.9 °F 19.4 °F 80% 30.29 in 10.0 mi NW 6.9 mph - N/A   Clear
11:55 PM 23.0 °F 14.7 °F 19.4 °F 86% 30.30 in 10.0 mi NW 6.9 mph - N/A   Clear